Location: Hayden
(33.8926°N, 86.7578°W)
Time: 03:53:46
(UTC+00:00)

Daily predictions for brighter satellites

Satellite Brightness Start Highest point End
(mag) Time Altitude Azimuth Time Altitude Azimuth Time Altitude Azimuth
SL-16 R/B 3.9 00:02:09 10° NW 00:07:23 39° WSW 00:12:35 10° S
SL-24 R/B 4.1 00:04:53 10° SSE 00:09:09 78° ENE 00:13:40 10° N
BREEZE-M DEB (TANK) 2.7 00:07:44 10° SSW 00:10:06 50° SE 00:14:52 10° NE
Cosmos 1782 Rocket 3.6 00:06:47 10° S 00:11:08 65° E 00:15:31 10° NNE
Cosmos 1844 Rocket 3.7 00:07:43 10° SSE 00:12:03 24° ESE 00:16:24 10° NE
Cosmos 1908 Rocket 4.3 00:08:46 10° SSW 00:13:01 58° W 00:17:20 10° N
Meteor 2-9 Rocket 4.3 00:08:13 10° S 00:14:04 80° E 00:19:53 10° N
Tsikada Rocket 4.1 00:10:11 10° N 00:16:21 84° W 00:22:32 10° S
ISS -1.8 00:13:58 10° W 00:16:56 29° NW 00:19:55 10° NNE
CZ-2D R/B 3.2 00:13:50 10° SSE 00:17:42 75° ENE 00:21:35 10° N
Cosmos 807 4.1 00:17:56 10° S 00:20:54 74° E 00:24:19 10° N
Cosmos 1937 Rocket 4.0 00:16:33 10° SSW 00:21:46 66° WNW 00:26:58 10° N
Cosmos 2084 Rocket 3.8 00:18:09 10° NNW 00:22:32 51° NE 00:26:57 10° SE
USA 234 4.1 00:21:34 10° ENE 00:27:05 29° SE 00:32:35 10° S
IRIS 4.4 00:22:53 10° WSW 00:27:29 83° SSE 00:30:11 12° ENE
Cosmos 1939 Rocket 3.7 00:24:44 10° S 00:28:45 56° W 00:32:50 10° NNW
CZ-2C R/B 1.0 00:26:14 10° W 00:29:56 72° N 00:32:43 15° E
Cosmos 2112 Rocket 4.1 00:24:51 10° NNW 00:30:05 82° WSW 00:35:19 10° SSE
Cosmos 1943 3.2 00:25:44 10° NNW 00:31:22 65° ENE 00:36:59 10° SSE
Cosmos 1680 Rocket 4.0 00:27:59 10° NNW 00:33:10 63° WSW 00:38:20 10° S
CSL-04 Debris 4.2 00:30:04 10° SSE 00:35:19 57° ENE 00:40:35 10° N
Iridium 4 Rocket 4.0 00:31:53 10° SSW 00:36:37 62° W 00:41:52 10° N
NOSS 3-4 (A) 4.5 00:33:29 10° SSE 00:37:36 20° ESE 00:41:46 10° ENE
NOSS 3-4 (C) 4.5 00:33:39 10° SSE 00:37:43 20° ESE 00:41:50 10° ENE
Helios 1A Rocket 4.4 00:36:05 10° S 00:39:54 40° W 00:43:48 10° NNW
Cosmos 1975 Rocket 2.9 00:36:45 10° N 00:41:05 74° E 00:45:22 10° SSE
CSL-04 Rocket 3.7 00:36:47 10° SSE 00:42:05 62° ENE 00:47:29 10° N
Cosmos 1174 4.3 00:41:41 10° SSW 00:46:09 85° ESE 00:51:54 10° NNE
Shenzhou-11 Module 3.2 00:46:02 10° SSW 00:46:55 16° S 00:46:55 16° S
Cosmos 1603 4.1 00:47:38 10° NNW 00:53:14 67° WSW 00:58:46 10° S
HJ-1C 3.2 00:53:05 10° SSE 00:56:22 79° ENE 00:59:39 10° N
H-2A R/B 1.8 00:52:06 10° SSE 00:57:00 71° ENE 01:02:01 10° N
Cosmos 1072 Rocket 4.5 00:52:31 10° S 00:58:44 88° E 01:05:05 10° N
Sich 1 Rocket 4.3 00:55:15 10° SSW 00:59:39 57° W 01:04:07 10° N
ATLAS 2AS CENTAUR R/B 3.5 00:52:53 10° S 00:59:44 34° ESE 01:06:43 10° NE
Meteor 1-12 Rocket 4.3 00:56:32 10° S 01:02:29 89° W 01:08:21 10° N
Nadezhda 4 Rocket 4.3 00:58:35 10° N 01:04:20 41° E 01:07:55 21° SE
Cosmos 2034 Rocket 4.0 00:59:11 10° S 01:05:27 63° E 01:11:43 10° NNE
CENTAUR R/B 4.2 01:04:14 10° N 01:11:08 28° NE 01:14:15 23° ENE
CZ-4 R/B 3.6 01:07:55 10° SSW 01:11:33 28° W 01:15:11 10° NW
GOES 2 Rocket 3.7 01:07:43 10° WSW 01:11:34 36° S 01:12:20 33° SSE
Okean 1 Rocket 4.3 01:16:18 26° NE 01:16:18 26° NE 01:18:40 10° NNE
Okean 2 Rocket 3.6 01:11:36 10° SSW 01:16:03 61° W 01:20:30 10° N
Ariane Rocket 3.2 01:16:43 38° ESE 01:18:03 48° ENE 01:22:54 10° N
Cosmos 1300 Rocket 4.2 01:14:27 10° SSW 01:18:44 57° W 01:23:06 10° N
Cosmos 1707 3.0 01:16:31 10° NNW 01:20:19 66° W 01:23:09 17° S
ARGOS 3.2 01:20:58 10° S 01:26:18 80° WSW 01:31:42 10° NNW
USA 238 DEB 4.3 01:20:18 10° NNW 01:27:14 44° NE 01:29:17 37° E
USA 238 4.3 01:20:25 10° NNW 01:27:20 44° NE 01:29:22 36° E
DELTA 2 R/B (1) 3.7 01:21:54 10° WNW 01:27:24 65° SSW 01:29:07 43° SE
In-Cosmos 22 4.0 01:25:18 10° N 01:30:38 87° W 01:34:17 21° S
SJ-6B 4.0 01:33:14 29° NNE 01:33:14 29° NNE 01:35:15 10° N
SL-08 RB Rocket 3.6 01:30:56 44° SSE 01:32:22 87° E 01:36:57 10° N
CZ-2C R/B 2.7 01:31:05 10° N 01:36:40 85° WNW 01:42:17 10° SSW
Cosmos 1634 Rocket 4.2 01:37:16 47° E 01:37:16 47° E 01:42:47 10° NNE
USA 186 3.8 01:43:19 23° NNW 01:43:19 23° NNW 01:44:45 10° NNW
Cosmos 1536 Rocket 3.7 01:40:48 10° N 01:45:15 75° W 01:45:33 71° SW
Cosmos 2285 Rocket 4.0 01:40:48 10° SSW 01:47:04 79° WNW 01:53:25 10° NNE
Cosmos 1025 Rocket 4.0 01:45:54 10° NNW 01:50:05 45° W 01:51:49 29° SW
Cosmos 1844 4.4 01:45:24 10° SW 01:50:58 53° WNW 01:56:31 10° N
NOSS 3-2 (A) 4.1 01:46:31 10° NNW 01:54:22 72° ENE 01:56:30 53° ESE
Meteor 2-13 Rocket 4.3 01:49:17 10° N 01:55:27 71° E 01:55:29 71° E
Cosmos 1844 Rocket 4.1 01:50:31 10° SW 01:55:38 37° WNW 02:00:48 10° N
Cosmos 1092 Rocket 3.8 01:59:03 10° N 02:05:04 81° NE 02:05:04 81° NE
MetOp-A 4.3 02:07:40 71° W 02:07:40 71° W 02:12:56 10° NNW
CZ-2C R/B 3.7 02:06:06 10° W 02:07:04 17° W 02:07:04 17° W
Cosmos 2026 Rocket 4.3 02:03:34 10° N 02:08:36 54° NNE 02:08:36 54° NNE
USA 234 3.5 02:04:41 14° NE 02:10:16 65° NW 02:16:43 10° WSW
Milstar 3 Cent rocket 3.3 02:10:19 10° WSW 02:14:14 33° SW 02:14:14 33° SW
BREEZE-M DEB (TANK) 4.3 02:06:27 10° WNW 02:22:32 89° SW 02:22:38 88° SSE
NOSS 3-4 (A) 4.0 02:22:13 10° SW 02:27:53 51° NW 02:30:10 34° N
NOSS 3-4 (C) 4.0 02:22:19 10° SW 02:27:59 52° NW 02:29:46 39° N
NOSS 3-2 (C) 4.0 02:22:11 10° NNW 02:29:49 76° NE 02:29:49 76° NE
Resurs 01 Rocket 4.4 02:36:49 13° NNW 02:36:49 13° NNW 02:37:18 10° NNW
ATLAS 2AS CENTAUR R/B 3.7 02:42:54 10° SW 02:50:29 49° NW 02:58:10 10° NNE
BREEZE-M DEB (TANK) 4.4 02:49:51 10° WNW 02:54:11 69° W 02:54:11 69° W
CENTAUR R/B 3.4 02:54:09 10° NW 03:01:27 66° WNW 03:01:27 66° WNW
ATLAS 3B R/B 4.3 03:04:09 10° NNW 03:07:18 27° N 03:07:18 27° N
USA 267 4.3 08:18:23 10° NE 08:22:28 38° NNE 08:22:28 38° NNE
Cosmos 1980 Rocket 3.6 08:52:46 30° N 08:52:46 30° N 08:55:36 10° NNE
BREEZE-M DEB (TANK) 4.0 08:55:56 77° SW 08:56:38 89° SE 09:01:15 10° NE
Cosmos 2322 Rocket 3.7 08:55:32 26° SE 08:57:07 31° ESE 09:02:01 10° NE
Cosmos 2263 Rocket 4.0 08:57:46 10° N 09:02:39 29° ENE 09:07:31 10° ESE
SL-16 R/B 2.9 09:05:31 44° SE 09:06:17 47° ESE 09:11:42 10° NNE
SL-4 R/B 3.6 09:08:18 38° ENE 09:08:18 38° ENE 09:11:19 10° NE
Cosmos 1934 Rocket 3.8 09:07:10 10° N 09:12:49 78° NNW 09:12:49 78° NNW
ARIANE 5 R/B 4.3 09:10:56 10° N 09:12:41 21° NNW 09:12:41 21° NNW
CZ-2C R/B 3.4 09:17:02 10° NNE 09:21:59 46° E 09:24:58 23° SSE
IDEFIX/ARIANE 42P 3.7 09:17:00 10° N 09:20:03 33° NNW 09:20:03 33° NNW
Cosmos 1763 Rocket 3.9 09:21:34 50° SSE 09:22:36 60° ESE 09:27:50 10° NNE
SJ 16-02 2.4 09:26:42 10° N 09:30:55 44° ENE 09:35:07 10° SE
Meteor 2-6 Rocket 4.1 09:32:37 70° WSW 09:32:59 73° W 09:38:47 10° N
Meteor 1-14 Rocket 4.5 09:28:01 10° NNW 09:32:16 49° NW 09:32:16 49° NW
H-2A R/B 2.5 09:29:39 10° SSE 09:33:54 61° ENE 09:38:16 10° N
PSLV R/B 3.8 09:30:13 10° NNE 09:34:22 63° ESE 09:34:43 60° SE
Meteor 1-5 Rocket 4.3 09:31:06 10° N 09:36:26 70° E 09:41:53 10° SSE
Cosmos 1238 Rocket 3.8 09:32:18 10° NNW 09:38:38 58° W 09:39:04 57° WSW
Cosmos 1605 Rocket 3.9 09:34:10 10° N 09:40:35 84° W 09:46:58 10° S
Skynet4D Del rocket 4.1 09:42:00 40° SSW 09:42:21 40° S 09:47:50 10° ESE
Landsat 5 3.6 09:39:55 10° SSE 09:44:25 86° E 09:48:57 10° N
ERS-2 3.4 09:43:33 10° SE 09:47:00 41° ENE 09:50:28 10° N
PAYLOAD A 3.6 09:44:28 10° N 09:49:09 79° WNW 09:50:29 47° SSW
Cosmos 540 Rocket 4.2 09:44:36 11° S 09:49:22 51° ESE 09:54:22 10° NNE
Cosmos 468 Rocket 4.0 09:50:04 52° WSW 09:51:01 62° WNW 09:56:16 10° N
X-37B 3.2 09:51:10 13° N 09:51:53 14° NNE 09:53:41 10° NE
ALOS 3.5 09:57:21 10° NNE 10:01:46 41° E 10:06:09 10° S
Cosmos 1484 Rocket 4.2 09:58:05 10° NNE 10:01:51 39° E 10:05:37 10° SSE
CSL-04 DEB 4.5 09:58:45 10° S 10:02:56 59° WSW 10:07:15 10° NNW
Cosmos 1536 3.5 10:04:38 10° N 10:08:40 58° E 10:12:39 10° SSE
Cosmos 1727 Rocket 4.0 10:03:35 12° SSW 10:09:23 58° W 10:15:37 10° N
Meteor 1-31 Rocket 4.0 10:09:44 10° NNE 10:13:25 43° E 10:17:05 10° S
DASH 4.1 10:14:08 24° SW 10:14:40 25° SW 10:17:30 10° SSE
Meteor 1-11 Rocket 3.6 10:10:28 10° N 10:16:13 80° W 10:21:48 10° S
Cosmos 2100 Rocket 4.3 10:10:52 10° N 10:17:16 74° E 10:23:35 10° SSE
Meteor 1-27 Rocket 3.9 10:15:19 10° SSW 10:21:07 57° W 10:26:57 10° N
deb Chang Zheng 4 3.4 10:17:59 10° N 10:22:16 81° WNW 10:26:31 10° SSW
SL-8 R/B 4.2 10:17:55 11° NW 10:22:30 58° NE 10:27:11 10° ESE
Cosmos 2360 Rocket 2.1 10:18:10 10° SSW 10:23:51 85° WNW 10:29:32 10° NNE
ADEOS Rocket 3.2 10:19:11 10° S 10:26:16 80° WSW 10:32:37 10° NNW
Cosmos 1898 Rocket 3.4 10:22:22 10° NNW 10:27:37 74° WSW 10:32:53 10° S
ATLAS 2AS CENTAUR R/B 4.2 10:21:17 10° NNW 10:28:05 39° NE 10:34:22 10° ESE
Cosmos 1707 Rocket 4.1 10:26:34 22° SW 10:28:40 34° W 10:32:37 10° NNW
Cosmos 1666 2.9 10:27:19 10° NNW 10:30:57 43° W 10:34:31 10° SSW
Cosmos 1459 Rocket 3.9 10:26:12 10° N 10:32:18 89° E 10:38:20 10° S
Cosmos 2123 Rocket 4.3 10:26:41 10° S 10:32:51 70° E 10:39:06 10° N
SAR-Lupe-4 3.7 10:31:17 10° SSE 10:34:50 76° ENE 10:38:26 10° N
Cosmos 2208 Rocket 4.0 10:31:57 10° SSW 10:37:10 67° WNW 10:42:22 10° N
Cosmos 858 Rocket 4.4 10:32:53 10° NNW 10:38:05 85° WSW 10:43:16 10° SSE
USA 234 3.2 10:31:56 10° SE 10:38:26 72° SW 10:44:57 10° NW
FENGYUN 3A 3.6 10:33:18 10° N 10:38:42 78° WNW 10:44:05 10° SSW
Cosmos 2322 Rocket 3.0 10:37:25 16° WSW 10:41:02 31° WNW 10:46:02 10° N
USA 32 4.5 10:41:09 10° NNW 10:45:58 38° W 10:50:46 10° SSW
Cosmos 2263 Rocket 2.8 10:41:30 10° NW 10:46:30 33° WSW 10:51:29 10° SSW
SL-4 R/B 3.8 10:43:55 13° WNW 10:46:46 23° NNW 10:50:32 10° NNE
SAR-Lupe-1 3.9 10:43:26 10° S 10:46:59 75° WSW 10:50:33 10° NNW
BREEZE-M DEB (TANK) 4.3 10:45:34 10° SW 10:49:13 67° SE 11:01:51 10° NE
SL-16 R/B 3.5 10:47:26 14° W 10:50:36 21° WNW 10:54:48 10° N
Cosmos 1733 Rocket 3.1 10:47:47 10° NNW 10:52:01 54° W 10:56:13 10° S
Cosmos 1844 Rocket 3.8 10:47:08 10° N 10:52:37 49° ENE 10:58:05 10° SE
Cosmos 1937 Rocket 3.5 10:47:57 10° NNW 10:53:00 58° WSW 10:58:01 10° S
Cosmos 1814 Rocket 4.3 10:49:47 10° SW 10:54:43 45° WNW 10:59:44 10° N
Cosmos 44 Rocket 4.0 10:51:43 11° WSW 10:55:45 32° NW 11:00:04 10° N
Cosmos 841 Rocket 4.2 10:51:16 10° SW 10:55:57 34° WNW 11:00:42 10° N
ADEOS 4.1 10:52:10 10° N 10:56:56 37° WNW 11:01:41 10° SW
CZ-2C R/B 4.0 10:56:21 10° NNW 10:59:48 18° WNW 11:03:16 10° WSW
Cosmos 1862 Rocket 4.4 10:59:01 10° SW 11:02:53 30° WNW 11:06:44 10° NNW
Gbstr 26 Del rocket 4.3 10:56:49 10° NW 11:04:41 88° SW 11:11:18 10° SE
Cosmos 2173 Rocket 4.3 10:59:18 10° NNW 11:05:19 47° W 11:11:21 10° SSW
Cosmos 1975 4.3 11:01:40 10° N 11:05:30 43° E 11:09:18 10° SSE
CZ-4B R/B 2.4 11:03:06 10° SSW 11:05:40 23° W 11:08:16 10° NW
SJ-12 3.9 11:01:36 10° N 11:05:42 64° WNW 11:09:46 10° SSW
SJ 16-02 3.1 11:07:21 10° WNW 11:09:00 12° W 11:10:39 10° WSW
Cosmos 1743 2.7 11:06:42 10° NNW 11:10:26 57° W 11:14:10 10° S
